Flag for Bermuda Weather past 2 weeks in Hamilton, Bermuda

Now
64 °F

Partly cloudy.


Feels Like: 64 °F
Forecast: 64 / 72 °F
Wind: 13 mph from West

Location: Bermuda

Current Time: Apr 1, 2015 at 7:24:35 AM

Latest Report: Apr 1, 2015 at 6:55 AM


Visibility: N/A

Pressure: 30.01 "Hg

Humidity: 78%

Dew point: 57 °F

Location of HamiltonLocation

Historic Weather in Hamilton — Graph

°F

Hamilton temperature yesterday

Maximum temperature yesterday: 70 °F (at 1:55 PM)
Minimum temperature yesterday: 61 °F (at 12:55 AM)
Average temperature yesterday: 65 °F

Past Weeks' High & Low Weather Summary

 TemperatureHumidityPressure
High73 °F (Mar 27, 2:55 PM)94% (Mar 23, 9:55 PM)30.39 "Hg (Mar 23, 9:55 PM)
Low55 °F (Mar 30, 12:55 AM)43% (Mar 20, 10:55 AM)29.80 "Hg (Mar 18, 1:55 AM)
Average64 °F68%30.07 "Hg
* Reported Mar 17 5:55 AM — Apr 1 5:55 AM, Hamilton, Weather by CustomWeather, © 2015

Note: Actual official high and low records may vary slightly from our data, if they occured in-between our weather recording intervals... More about our weather records

Advertising

Hamilton weather history for previous 24 hours

 ConditionsComfort  
Time TempWeatherWind HumidityBarometerVisibility
5:55 AM
Wed, Apr 1
64 °FPassing clouds.13 mph78%30.01 "HgN/A
4:55 AM64 °FPassing clouds.14 mph78%30.01 "HgN/A
3:55 AM64 °FPassing clouds.13 mph78%30.01 "HgN/A
2:55 AM64 °FPassing clouds.12 mph78%30.04 "HgN/A
1:55 AM64 °FPassing clouds.10 mph83%30.04 "HgN/A
12:55 AM64 °FPassing clouds.12 mph83%30.04 "HgN/A
11:55 PM
Tue, Mar 31
64 °FPassing clouds.14 mph83%30.04 "HgN/A
10:55 PM64 °FPassing clouds.17 mph83%30.04 "HgN/A
9:55 PM64 °FPassing clouds.15 mph83%30.04 "HgN/A
8:55 PM64 °FPassing clouds.17 mph83%30.04 "HgN/A
7:55 PM66 °FScattered showers. Broken clouds.21 mph78%30.01 "HgN/A
6:55 PM66 °FScattered showers. Broken clouds.21 mph83%30.01 "HgN/A
5:55 PM64 °FSprinkles. Broken clouds.16 mph83%30.01 "Hg6 mi
4:55 PM66 °FScattered showers. Partly sunny.23 mph78%29.98 "HgN/A
3:55 PM68 °FScattered showers. Partly sunny.23 mph69%29.98 "HgN/A
2:55 PM70 °FBroken clouds.24 mph64%30.01 "HgN/A
1:55 PM70 °FBroken clouds.24 mph64%30.01 "HgN/A
12:55 PM68 °FBroken clouds.23 mph64%30.04 "HgN/A
11:55 AM68 °FBroken clouds.23 mph64%30.04 "HgN/A
10:55 AM68 °FPartly sunny.20 mph64%30.04 "HgN/A
9:55 AM64 °FBroken clouds.23 mph68%30.04 "HgN/A
8:55 AM64 °FBroken clouds.21 mph64%30.04 "HgN/A
7:55 AM63 °FPartly cloudy.21 mph64%30.04 "HgN/A
Weather by CustomWeather, © 2015

See weather overviewHow to use our weather pages